Retour au catalogue

FENGYUN 1C DEB

ActifPO
NORAD 31083·DEBRIS·🇨🇳 China

Lancé May 10, 1999 depuis Taiyuan Satellite Launch Center

Loading…

Prochains Passages (prochaines 24 heures)

TLE

FraisSource: Space-Track

Époque: Sep 14, 2026, 08:31 UTC

1 31083U 99025BGD 26257.35508009  .00008648  00000-0  14800-2 0  9993
2 31083  98.6612  34.4495 0029113 170.9742 217.6199 14.68814806 17407

Suivez FENGYUN 1C DEB en temps réel avec AllMySat

Download on the App Store